COSMOS 1275 DEB, 12771

Orbit data source: Space-Track

COSMOS 1275 DEB, 12771 is space debris in LEO originally from a launch on Thu, 04 Jun 1981 UTC launched from the Plesetsk Missile And Space Complex (PKMTR). Debris objects in space refer to the collection of defunct objects orbiting the Earth. Examples of debris include non-operational satellites, rocket bodies, and fragments generated from explosions, collisions, or faulty payload assembly.

Loading next visibility...
Identifier
12771, 1981-053DQ
Orbit
LEO
Country
Flag of CISCIS
Related business
Manufacturer
Unknown
Mission
Spacecraft
Bus & Motor
Unknown
Mass
Unknown
Launch date (UTC)
1981-06-04 (45 years ago)
Launch vehicle
Unknown
Launch site
Plesetsk Missile And Space Complex (PKMTR)
Object type
Payload
Rocket body
Debris
Shape & HBR
Unknown shape, 0.1 m
Radar Cross Section
Medium (>0.1 m² and <1 m²)

Expand to show TLE details & history
Last TLE update: 18 hours ago

TLE from 18 hours ago
0 COSMOS 1275 DEB
1 12771U 81053DQ  26150.46122113  .00001094  00000-0  11569-2 0  9997
2 12771  82.8671 140.1885 0148645 197.9475 318.5435 13.68998739217630
Epoch: 2026-05-30T11:04Z
TLE epoch observation values (Epoch: 2026-05-30T11:04:09.505Z)
Latitude
24.4754°
Longitude
-97.07648°
Altitude
924.596 km
Speed
7.432 km/s
True Right ascension
21h 07m 45s
True Declination
24° 20' 56"
Sunlit
Object was in daylight at epoch
Visualization orbit readout
Latitude
Unknown
Longitude
Unknown
Altitude
Unknown
Speed
Unknown
Apparent Right ascension
Unknown
Apparent Declination
Unknown
Sunlit
N/A
Visualization observer readout
Local Sidereal Time
14:24:46
Azimuth
Unknown
Elevation
Unknown
Doppler factor
Unknown
Orbital elements
Apogee altitude
1,110.004 km
Perigee altitude
890.65 km
Semi-major axis
7,378.464 km
Eccentricity
0.01486
Inclination
82.8671°
RAAN
140.1885°
Arg. of periapsis
197.9475°
True anomaly
317.39996°
Mean anomaly
318.5435°
Eccentric anomaly
317.97332°
Mean motion
3.42448 °/min
Orbital period
105.13 mins
BSTAR
0.0011569
Loading maneuver chart data...
Computing Atmospheric mass density...

Documentation

Showing up to 5 results
|